{"data":{"norad_id":87884,"epoch":"2026-05-23T12:54:18.880128Z","epoch_age_seconds":194691,"freshness":"STALE","line1":"1 87884U          26143.53771852  .00000023  00000+0  36137-4 0  9997","line2":"2 87884  98.7383 246.7228 0153142 333.3650  25.9710 14.06094766641104","mean_motion":14.06094766,"eccentricity":0.0153142,"inclination_deg":98.7383,"raan_deg":246.7228,"arg_perigee_deg":333.365,"mean_anomaly_deg":25.971,"bstar":3.6137e-5,"rev_number":64110,"period_min":102.41130504286,"perigee_km":761.72452104698,"apogee_km":983.80808781643,"semimajor_km":7250.9033044317,"source":"CELESTRAK","updated_at":"2026-05-25T13:38:11.774129Z"}}